[[{"header":{"parameterUnit":"m.s-1","parameterCategory":1,"la1":30.2991,"la2":30.254,"lo1":-89.0895,"lo2":-89.0444,"dy":0.0017,"dx":0.0017,"nx":28,"ny":28,"refTime":"2024-05-06T09:00:00:Z","depth":0,"parameterNumber":2,"parameterNumberName":"U-component_of_WINDS"},"data":[0,0,0,0,0,0,0,0,0,0,0,0,0,0,0,0,0,0,0,0,0,0,0,0,0,0,0,0,0,0,0,0,0,0,0,0,0,0,0,0,0,0,0,0,0,0,0,0,0,0,0,0,0,0,0,0,0,0,-0.7961,-0.7962,0,-0.806,-0.8061,-0.8062,-0.8107,-0.8107,-0.8107,-0.8107,-0.8212,-0.8214,-0.8217,0,0,0,0,0,0,0,0,0,0,0,0,0,-0.7813,-0.7816,-0.7961,-0.7962,-0.7963,-0.806,-0.8061,-0.8063,-0.8107,-0.8107,-0.8107,-0.8107,-0.8211,-0.8214,-0.8217,0,0,0,0,0,0,0,0,0,0,0,0,0,-0.7891,-0.7817,-0.796,-0.7997,-0.8001,-0.806,-0.8061,-0.8063,-0.8107,-0.8107,-0.8107,-0.8107,-0.8209,-0.8214,-0.8218,-0.8248,0,0,-0.8231,-0.8233,0,0,0,0,0,0,0,0,-0.7887,-0.7897,-0.799,-0.7995,-0.8,-0.8071,-0.8048,-0.8125,-0.8107,-0.8067,-0.8107,-0.8107,-0.8165,-0.8173,-0.8192,-0.8253,-0.8257,-0.8232,-0.8234,-0.8236,-0.8237,0,0,0,0,0,0,0,-0.7881,-0.7893,-0.8,-0.7992,-0.7997,-0.801,-0.8021,-0.8063,-0.8116,-0.8071,-0.8074,-0.8085,-0.8168,-0.8188,-0.8195,-0.8259,-0.8231,-0.8235,-0.8238,-0.824,-0.8351,-0.8351,0,0,0,0,0,0,-0.787,-0.7888,-0.7997,-0.8003,-0.7942,-0.8012,-0.8025,-0.8048,-0.8116,-0.8126,-0.8085,-0.8087,-0.8181,-0.819,-0.8199,-0.8239,-0.8236,-0.824,-0.8243,-0.835,-0.8351,-0.8351,0,0,0,0,0,0,-0.7866,-0.7879,-0.7993,-0.7947,-0.7962,-0.8015,-0.8041,-0.805,-0.8071,-0.8127,-0.8137,-0.8096,-0.8181,-0.8193,-0.8236,-0.8243,-0.8242,-0.8246,-0.835,-0.8351,-0.8351,-0.8319,0,0,0,0,0,0,-0.7862,-0.7877,-0.7888,-0.7946,-0.7964,-0.8027,-0.8042,-0.8052,-0.8078,-0.8081,-0.8139,-0.8149,-0.8182,-0.8229,-0.824,-0.8249,-0.8249,-0.835,-0.835,-0.8351,-0.832,-0.8319,-0.8318,0,0,0,0,0,-0.7856,-0.7876,-0.7889,-0.7902,-0.7979,-0.8027,-0.8038,-0.8074,-0.8078,-0.809,-0.8127,-0.8147,-0.8241,-0.8233,-0.8246,-0.8256,-0.8349,-0.835,-0.8351,-0.8321,-0.8319,-0.8318,0,0,0,0,0,0,-0.7818,-0.7884,-0.7899,-0.7938,-0.7976,-0.8035,-0.8051,-0.8071,-0.811,-0.8112,-0.8156,-0.8169,-0.8208,-0.8237,-0.8227,-0.829,-0.8297,-0.83,-0.827,-0.8269,-0.8268,-0.826,-0.8253,0,0,0,0,0,-0.7814,-0.7847,-0.7903,-0.7932,-0.795,-0.7997,-0.802,-0.8044,-0.8087,-0.8103,-0.8143,-0.8184,-0.8223,-0.8247,-0.8286,-0.8325,-0.8339,-0.8339,-0.8337,-0.8336,-0.8339,-0.8362,-0.8363,-0.8354,-0.8354,-0.8354,0,0,-0.7807,-0.7847,-0.7865,-0.7925,-0.7958,-0.7992,-0.8011,-0.8046,-0.8071,-0.8109,-0.8152,-0.8182,-0.8231,-0.8272,-0.8292,-0.8297,-0.8344,-0.8337,-0.8336,-0.8339,-0.8363,-0.8364,-0.8365,-0.8354,-0.8354,-0.8354,0,0,-0.781,-0.7843,-0.7871,-0.7903,-0.7953,-0.7984,-0.799,-0.8046,-0.8067,-0.8111,-0.814,-0.8172,-0.8238,-0.8272,-0.8297,-0.8314,-0.8335,-0.8326,-0.832,-0.8343,-0.8343,-0.8344,-0.8351,-0.8353,-0.8328,-0.8328,-0.8328,0,-0.7794,-0.7845,-0.7883,-0.7916,-0.7943,-0.7978,-0.8007,-0.8037,-0.8097,-0.8115,-0.8119,-0.8203,-0.8239,-0.8288,-0.8292,-0.8312,-0.8322,-0.8319,-0.834,-0.8341,-0.8343,-0.835,-0.8352,-0.8327,-0.8327,-0.8327,-0.8327,0,-0.7824,-0.7859,-0.7876,-0.7932,-0.796,-0.7991,-0.8035,-0.8059,-0.8082,-0.8113,-0.8158,-0.8201,-0.825,-0.8264,-0.8286,-0.8317,-0.8319,-0.8331,-0.8339,-0.8341,-0.8349,-0.8352,-0.8325,-0.8325,-0.8326,-0.8326,0,0,-0.7805,-0.7882,-0.7888,-0.7914,-0.7971,-0.8,-0.8033,-0.808,-0.81,-0.8141,-0.8171,-0.8226,-0.8238,-0.8267,-0.8294,-0.8314,-0.8325,-0.8324,-0.8326,-0.8323,-0.8363,-0.8353,-0.8356,-0.8339,-0.834,-0.8341,-0.8359,0,-0.7817,-0.7877,-0.7912,-0.7958,-0.7992,-0.8026,-0.8055,-0.8094,-0.8125,-0.8158,-0.8192,-0.8231,-0.8243,-0.8261,-0.8282,-0.8319,-0.8334,-0.8319,-0.8369,-0.837,-0.8355,-0.8359,-0.8349,-0.8365,-0.8362,-0.8363,-0.8363,0,-0.7838,-0.7877,-0.7926,-0.798,-0.7995,-0.8021,-0.8067,-0.8099,-0.8144,-0.8165,-0.8198,-0.8225,-0.8263,-0.8268,-0.8322,-0.831,-0.8333,-0.8354,-0.8356,-0.8362,-0.8366,-0.8366,-0.837,-0.8372,-0.8368,-0.8367,-0.8367,0,-0.782,-0.7885,-0.7923,-0.7944,-0.8008,-0.8025,-0.8053,-0.8098,-0.8125,-0.8166,-0.8183,-0.8228,-0.8253,-0.8288,-0.8327,-0.8327,-0.8377,-0.8385,-0.8396,-0.8395,-0.8405,-0.8404,-0.8413,-0.8419,-0.8419,-0.8419,-0.8419,0,-0.7829,-0.7858,-0.7915,-0.7939,-0.7973,-0.8014,-0.8046,-0.8077,-0.8117,-0.8148,-0.8181,-0.821,-0.8259,-0.8295,-0.8326,-0.8366,-0.8377,-0.8395,-0.8403,-0.8392,-0.839,-0.8408,-0.8408,-0.842,-0.842,-0.842,-0.8419,0,-0.7815,-0.7854,-0.7898,-0.7955,-0.797,-0.7993,-0.8042,-0.8067,-0.8099,-0.8138,-0.8149,-0.82,-0.8243,-0.8286,-0.8344,-0.8365,-0.8405,-0.8415,-0.8389,-0.8393,-0.8402,-0.8401,-0.8423,-0.8429,-0.843,-0.843,-0.843,0,-0.7818,-0.7841,-0.79,-0.7923,-0.7949,-0.7985,-0.8012,-0.8054,-0.8081,-0.8135,-0.8153,-0.8199,-0.8237,-0.8305,-0.8348,-0.8393,-0.8405,-0.8409,-0.8412,-0.84,-0.8405,-0.8403,-0.8406,-0.8408,-0.8408,-0.8408,-0.8408,0,-0.7819,-0.7838,-0.7875,-0.7918,-0.7949,-0.7986,-0.8024,-0.8041,-0.8091,-0.8119,-0.8163,-0.8193,-0.8252,-0.8297,-0.8347,-0.8378,-0.8401,-0.8407,-0.8412,-0.8401,-0.8385,-0.8394,-0.8386,-0.8406,-0.8406,-0.8406,-0.8406,-0.8406,-0.7814,-0.7837,-0.7882,-0.7922,-0.7955,-0.799,-0.8016,-0.8051,-0.8088,-0.8139,-0.8162,-0.8206,-0.8253,-0.8322,-0.8352,-0.8389,-0.8395,-0.8402,-0.8404,-0.8405,-0.8403,-0.8379,-0.8398,-0.8398,-0.8398,-0.8398,-0.8398,0,-0.7818,-0.7849,-0.7885,-0.7937,-0.7969,-0.7988,-0.8031,-0.8057,-0.8095,-0.8136,-0.8173,-0.8224,-0.8268,-0.8315,-0.8362,-0.8382,-0.8394,-0.8393,-0.8392,-0.8399,-0.8394,-0.8385,-0.8383,-0.8383,-0.8383,-0.8383,-0.8383,-0.8382,-0.7824,-0.7862,-0.7886,-0.7942,-0.7974,-0.8017,-0.804,-0.8073,-0.8106,-0.8161,-0.8197,-0.8227,-0.8271,-0.8321,-0.8363,-0.8376,-0.8392,-0.8387,-0.8403,-0.8398,-0.8399,-0.84,-0.8392,-0.839,-0.839,-0.8405,-0.8405,-0.8405]},{"header":{"parameterUnit":"m.s-1","parameterCategory":1,"la1":30.2991,"la2":30.254,"lo1":-89.0895,"lo2":-89.0444,"dy":0.0017,"dx":0.0017,"nx":28,"ny":28,"refTime":"2024-05-06T09:00:00:Z","depth":0,"parameterNumber":3,"parameterNumberName":"V-component_of_WINDS"},"data":[0,0,0,0,0,0,0,0,0,0,0,0,0,0,0,0,0,0,0,0,0,0,0,0,0,0,0,0,0,0,0,0,0,0,0,0,0,0,0,0,0,0,0,0,0,0,0,0,0,0,0,0,0,0,0,0,0,0,5.2707,5.2708,0,5.2781,5.2782,5.2783,5.2737,5.2734,5.2732,5.273,5.2804,5.2808,5.2812,0,0,0,0,0,0,0,0,0,0,0,0,0,5.2525,5.2528,5.2707,5.2708,5.2709,5.2781,5.2782,5.2783,5.2737,5.2734,5.2732,5.2729,5.2803,5.2807,5.2812,0,0,0,0,0,0,0,0,0,0,0,0,0,5.2602,5.2529,5.2707,5.2695,5.2694,5.2781,5.2782,5.2783,5.2738,5.2734,5.2731,5.2728,5.2801,5.2807,5.2813,5.2915,0,0,5.2831,5.2834,0,0,0,0,0,0,0,0,5.2597,5.2608,5.2696,5.2696,5.2696,5.2746,5.2745,5.2827,5.2738,5.2721,5.273,5.2726,5.2787,5.2794,5.2815,5.2918,5.2921,5.2832,5.2835,5.2838,5.284,0,0,0,0,0,0,0,5.2592,5.2605,5.2736,5.2697,5.2697,5.2685,5.2692,5.276,5.2771,5.2722,5.2719,5.2729,5.2787,5.281,5.2817,5.2922,5.2832,5.2837,5.2841,5.2843,5.3113,5.3116,0,0,0,0,0,0,5.2588,5.2601,5.2734,5.2738,5.2638,5.2691,5.2699,5.2733,5.2771,5.2773,5.2731,5.2726,5.2801,5.281,5.2819,5.2941,5.2838,5.2843,5.2847,5.3109,5.3113,5.3117,0,0,0,0,0,0,5.2584,5.26,5.2731,5.2669,5.2685,5.2698,5.2736,5.2736,5.2759,5.2777,5.2779,5.2753,5.2799,5.2811,5.2891,5.2943,5.2846,5.2852,5.3105,5.311,5.3115,5.3185,0,0,0,0,0,0,5.2579,5.2599,5.2638,5.267,5.2688,5.2803,5.2739,5.274,5.277,5.2764,5.2798,5.28,5.2797,5.2883,5.2897,5.2949,5.2856,5.31,5.3107,5.3114,5.3178,5.3192,5.3204,0,0,0,0,0,5.2573,5.2655,5.2641,5.2657,5.2738,5.2806,5.2816,5.2811,5.2774,5.2814,5.2825,5.2799,5.2935,5.2891,5.2907,5.2962,5.3097,5.3105,5.3113,5.3173,5.319,5.3204,0,0,0,0,0,0,5.2628,5.2659,5.2643,5.2738,5.277,5.2798,5.2848,5.2829,5.2872,5.2864,5.2856,5.2864,5.2948,5.2963,5.2914,5.3062,5.301,5.3022,5.305,5.3066,5.3079,5.3073,5.2861,0,0,0,0,0,5.2652,5.2705,5.2729,5.281,5.2827,5.2835,5.2864,5.2858,5.289,5.2903,5.292,5.2952,5.3002,5.3035,5.3081,5.318,5.3187,5.3226,5.3238,5.3249,5.3259,5.3313,5.333,5.3144,5.3144,5.3144,0,0,5.27,5.2724,5.2758,5.2822,5.2846,5.2901,5.2846,5.2907,5.2948,5.2912,5.2989,5.3004,5.3038,5.3129,5.3169,5.3144,5.3312,5.3259,5.3267,5.3272,5.3323,5.334,5.3356,5.3149,5.3148,5.3147,0,0,5.2817,5.284,5.2911,5.2936,5.2973,5.2977,5.2994,5.3025,5.3034,5.3112,5.3086,5.3134,5.3219,5.3245,5.327,5.3397,5.3374,5.3412,5.348,5.3532,5.3546,5.3559,5.3605,5.3621,5.3422,5.3422,5.3422,0,5.2873,5.2956,5.2949,5.3012,5.3041,5.3011,5.3082,5.3107,5.3157,5.3177,5.3148,5.3255,5.3276,5.3372,5.3404,5.3424,5.3443,5.3408,5.3545,5.3558,5.357,5.3613,5.363,5.3427,5.3426,5.3426,5.3425,0,5.3022,5.308,5.3132,5.3182,5.3217,5.3283,5.3286,5.3322,5.3313,5.332,5.34,5.3424,5.3476,5.3498,5.3489,5.3593,5.3576,5.3546,5.3493,5.3592,5.3633,5.3649,5.3433,5.3431,5.343,5.3429,0,0,5.3176,5.3222,5.3241,5.3263,5.3302,5.3346,5.3411,5.3462,5.3493,5.3528,5.3583,5.3656,5.3629,5.3656,5.365,5.3696,5.3795,5.366,5.3661,5.3684,5.3911,5.3933,5.3953,5.378,5.3783,5.3786,5.3908,0,5.3296,5.341,5.3406,5.3513,5.3566,5.3539,5.3595,5.3625,5.3634,5.368,5.3689,5.3741,5.3701,5.3718,5.3762,5.3773,5.384,5.3764,5.383,5.3833,5.3823,5.3974,5.3998,5.4112,5.3924,5.3926,5.3928,0,5.345,5.3492,5.3604,5.3635,5.3657,5.3708,5.3754,5.3798,5.3831,5.3834,5.3866,5.3852,5.3917,5.3863,5.3952,5.3901,5.3928,5.3937,5.3942,5.3948,5.3887,5.3984,5.4148,5.4165,5.3953,5.3951,5.3949,0,5.3552,5.3635,5.3713,5.3733,5.3771,5.3808,5.3825,5.3855,5.3885,5.3925,5.3945,5.3992,5.4018,5.4054,5.4053,5.4014,5.4144,5.409,5.4149,5.4149,5.4177,5.4176,5.4349,5.4194,5.4194,5.4194,5.4193,0,5.3686,5.3755,5.3759,5.3807,5.3885,5.3879,5.3955,5.3969,5.3995,5.4045,5.4024,5.4071,5.4067,5.4114,5.4113,5.4188,5.42,5.4204,5.4203,5.4206,5.4206,5.4223,5.4216,5.4198,5.4197,5.4196,5.4196,0,5.3812,5.3818,5.3901,5.393,5.3939,5.3995,5.4019,5.4065,5.4071,5.4135,5.4149,5.416,5.4214,5.4217,5.428,5.4279,5.437,5.436,5.4359,5.4358,5.4417,5.4411,5.4607,5.4632,5.4462,5.4463,5.4464,0,5.3898,5.3951,5.3986,5.4018,5.4038,5.4089,5.4121,5.4117,5.4151,5.4192,5.4232,5.4285,5.4327,5.4415,5.4428,5.4476,5.4467,5.4533,5.4474,5.4476,5.4469,5.4466,5.4471,5.4544,5.4546,5.4547,5.4549,0,5.4049,5.4049,5.4095,5.4143,5.4181,5.4218,5.4253,5.428,5.428,5.4319,5.4375,5.4408,5.4472,5.4524,5.4571,5.4588,5.4569,5.4567,5.4583,5.4587,5.4585,5.4587,5.4391,5.4563,5.4561,5.456,5.4559,5.4559,5.4158,5.4203,5.4235,5.4288,5.4313,5.4346,5.439,5.4403,5.445,5.4502,5.4497,5.4559,5.459,5.465,5.4671,5.4719,5.4697,5.472,5.4726,5.4732,5.4739,5.4577,5.4728,5.4727,5.4727,5.4727,5.4726,0,5.4308,5.4327,5.4375,5.4424,5.4466,5.4444,5.4481,5.4517,5.4572,5.4603,5.4645,5.4709,5.476,5.4777,5.4826,5.4861,5.4854,5.4874,5.4872,5.4876,5.4756,5.4737,5.488,5.488,5.488,5.488,5.488,5.488,5.4391,5.4467,5.4471,5.456,5.4579,5.464,5.4663,5.4693,5.4718,5.479,5.4833,5.4844,5.4869,5.492,5.4965,5.4969,5.4988,5.5013,5.5013,5.49,5.4885,5.487,5.4852,5.5017,5.5017,5.5129,5.513,5.5131]}]]